Вернуться в каталог

NIMBUS 2 DEB

АктивенSSO
NORAD 40648·DEBRIS·🇺🇸 United States

Запущен May 15, 1966 с Vandenberg Space Force Base

Loading…

Ближайшие Пролёты (ближайшие 24 часа)

TLE

СвежийSource: Space-Track

Эпоха: Sep 14, 2026, 08:45 UTC

1 40648U 66040BM  26257.36522761  .00001923  00000-0  30690-2 0  9997
2 40648 100.2032  90.4821 0039041 272.3931  87.2732 13.50269591555083

Отслеживайте NIMBUS 2 DEB в реальном времени с AllMySat

Download on the App Store